Location: Владивосток
(43.1151°N, 131.8856°E)
Time: 23:32:44
(UTC+10:00)

Envisat - Pass Details

Date: 18 January 2022
Orbit: 764 x 765 km, 98.2° (Epoch: 17 May)

Event Time Altitude Azimuth Distance (km) Brightness Sun altitude
Rises 05:55:28 0° 16° (NNE) 3,239 6.4 -29.6°
Reaches altitude 10° 05:57:49 10° 19° (NNE) 2,309 5.6 -29.2°
Maximum altitude 06:02:52 65° 101° (E) 840 3.3 -28.3°
Drops below altitude 10° 06:07:53 10° 184° (S) 2,293 5.4 -27.4°
Sets 06:10:12 0° 187° (S) 3,215 6.2 -26.9°
